Regional Weather Roundup
Issued by NWS Albany, NY

Home | Current Version | Previous Version | Text Only | Print | Product List | Glossary Off
Versions: 1 2 3 4 5 6 7 8 9 10 11 12 13 14 15 16 17 18 19 20 21 22 23 24 25 26 27 28 29 30 31 32 33 34 35 36 37 38 39 40 41 42 43 44 45 46 47 48 49 50

000
ASUS41 KALY 130210
RWRALY

NEW YORK STATE HOURLY WEATHER ROUNDUP
NATIONAL WEATHER SERVICE ALBANY NY
900 PM EST TUE DEC 12 2017

NOTE: "FAIR" INDICATES FEW OR NO CLOUDS BELOW 12,000 FEET WITH NO
SIGNIFICANT WEATHER AND/OR NO OBSTRUCTIONS TO VISIBILITY.

NYZ032-033-038>043-046>054-057>066-NYZ062>081-082-084-130300-
EAST


CITY           SKY/WX    TMP DP  RH WIND       PRES   REMARKS
ALBANY         CLOUDY    28  15  58 NW18G31   29.48R WCI  15
GLENS FALLS    CLOUDY    30  22  72 W6        29.42S WCI  24
POUGHKEEPSIE   CLOUDY    33  20  58 NW12      29.46R WCI  24
MONTGOMERY     CLOUDY    31  19  61 NW18G26   29.47R WCI  19
WHITE PLAINS   CLOUDY    32  21  64 NW24G30   29.40F WCI  19
ISLIP          PTCLDY    36  27  69 NW25G35   29.38F WCI  24
NEW YORK CITY  CLOUDY    36  25  64 NW24G30   29.44F WCI  24
CENTRAL PARK   CLOUDY    34  23  64 MISG      29.46F
$$

NYZ005>009-017-018-044>046-055-056-130300-
CENTRAL


CITY           SKY/WX    TMP DP  RH WIND       PRES   REMARKS
FULTON         CLEAR     18   6  59 SW15      29.56S WCI   4
SYRACUSE       PTCLDY    17   7  64 SW21G28   29.58S WCI   0
ROME           CLOUDY    21   9  59 W12G22    29.57R WCI   9
ELMIRA         PTCLDY    19   6  57 W12       29.61S WCI   7
BINGHAMTON     FLURRIES  16   7  67 NW15G25   29.51S WCI   1
$$

NYZ026>034-041>043-087-130300-
NORTH


CITY           SKY/WX    TMP DP  RH WIND       PRES   REMARKS
WATERTOWN      MOCLDY    22  15  75 W8        29.51S WCI  12
FORT DRUM      NOT AVBL
OGDENSBURG     FLURRIES  20  18  92 W3        29.50S
MASSENA        LGT SNOW  19  17  92 SW10      29.50S FOG     WCI   7
SARANAC LAKE   LGT SNOW  19  16  88 W9G18     29.37S FOG     WCI   8
PLATTSBURGH    CLOUDY    29  22  75 VRB3      29.41R
$$

NYZ001>004-010>016-019>021-085-130300-
WEST


CITY           SKY/WX    TMP DP  RH WIND       PRES   REMARKS
NIAGARA FALLS  LGT SNOW  17   9  70 W21       29.64F WCI   0
BUFFALO        FLURRIES  14   8  77 W16G24    29.63F WCI  -2
DUNKIRK        LGT SNOW  18  10  71 W21G35    29.69F WCI   1
JAMESTOWN      LGT SNOW  12   9  87 W9G20     29.62F VSB 1   WCI   0
WELLSVILLE     MIX PCPN  12   3  67 W14G23    29.54F WCI  -3
ROCHESTER      PTCLDY    15   8  73 W14G23    29.60F WCI   0
PENN YAN       PTCLDY    17   3  54 W12       29.59F WCI   4
$$

             KEY
       WCI = WIND CHILL INDEX
       VSB = VISIBILITY
       HX  = HEAT INDEX
$$



USA.gov is the U.S. government's official web portal to all federal, state and local government web resources and services.